THOR AGENA B DEB

Satellite information

Favourite Embed

Satellite Type and Status

DEBRISIN ORBIT

Key statistics

Satellite THOR AGENA B DEB at a glance.

Uptime

21881

Days in orbit

Revolutions

≈ 13.6

Per day

Orbit

LEO

Low Earth Orbit

Inclination

79.8

Latest

Satellite identification and parameters

Extended collection of information and parameters for THOR AGENA B DEB.

Object identification

Identified? True

Debris? True

Object name: THOR AGENA B DEB

International designator: 1965-098F

Object number (NORAD): 1948

Object ID (CCSDS): 1948

Country: UNITED STATES OF AMERICA (US)

Current information (Y/N): Y

RCS size: MEDIUM

Orbital parameters

Period: 106.004 minutes

Inclination: 79.8465 deg

SMA: 7419.513 km

Apoapsis: 1605.817 km

Periapsis: 476.939 km

RAAN: 163.0535 deg

Eccentricy: 0.07607494

Argument of periapsis: 125.3805 deg

Mean anomaly: 242.0865 deg

Mean motion: 13.58437491 rev/day

Mean motion (dot): 0.00008242 rev/day2

B* drag term: 0.0015239943 1/REarth

Two-line elements (TLE)

Creation date: Oct. 25, 2025, 3:11 a.m.

Reference frame: TEME

Reference center: EARTH

Epoch: Oct. 24, 2025, 5:09 p.m. UTC

TLE line 0: 0 THOR AGENA B DEB

TLE line 1: 1 01948U 65098F 25297.71508890 .00008242 00000-0 15240-2 0 9993

TLE line 2: 2 01948 79.8465 163.0535 0760749 125.3805 242.0865 13.58437491777163

Live tracking on map

Real-time ground track for satellite THOR AGENA B DEB.

In-orbit conjunctions

A list of the most updated potential collisions computed for object THOR AGENA B DEB.

Target Orbit TCA Probability of collision Miss distance Type
FENGYUN 1C DEB SSO 2025-10-19 10:18:00 0.0001060331 235.0 (m) DEBRIS
CZ-6A DEB LEO 2024-11-24 16:11:21 0.0001183845 858.0 (m) DEBRIS
CALSPHERE 2 SSO 2024-08-30 06:38:09 0.0001594776 765.0 (m) PAYLOAD

Associated space launch

Canadian small ionospheric observatory instrumented with a sweep-frequency ionospheric sounder, a VLF receiver, an energetic particle experiment, a cosmic noise experiment, and an electrostatic probe.

THOR AGENA B DEB was lifted into orbit during the mission ‘Thor SLV-2 Agena B | Alouette 2’, on board a Thor SLV-2 Agena B space rocket.

The launch took place on Nov. 29, 1965, 4:48 a.m. from Space Launch Complex 2E.

For more information about the launch, click the button.

Launch to space Thor SLV-2 Agena B | Alouette 2
Thor SLV-2 Agena B | Alouette 2

Agency: N/A

Status: Launch Successful

Launch date: Nov. 29, 1965, 4:48 a.m. UTC

Rocket: Thor SLV-2 Agena B

Launch pad: Space Launch Complex 2E

Location: Vandenberg SFB, CA, USA

...

Latest news about this satellite

There are no fresh news available about this satellite. Check back as we update our databases every day.


Newsletter sign-up

Weekly statistics, charts and insights to help you stay on top of the space industry.